Time,TemperatureF,DewpointF,PressureIn,WindDirection,WindDirectionDegrees,WindSpeedMPH,WindSpeedGustMPH,Humidity,HourlyPrecipIn,Conditions,Clouds,dailyrainin,SoftwareType,DateUTC
2013-09-25 00:05:00,61.2,43.9,29.32,NW,313,0.0,0.0,53,0.00,,,0.00,VWS V14.01,2013-09-25 04:05:00,
2013-09-25 00:20:00,61.0,44.2,29.32,NW,313,0.0,0.0,54,0.00,,,0.00,VWS V14.01,2013-09-25 04:20:00,
2013-09-25 00:35:00,60.8,43.6,29.32,North,357,0.0,0.0,53,0.00,,,0.00,VWS V14.01,2013-09-25 04:35:00,
2013-09-25 00:50:00,60.6,44.4,29.32,North,0,0.0,0.0,55,0.00,,,0.00,VWS V14.01,2013-09-25 04:50:00,
2013-09-25 01:05:00,60.6,44.4,29.32,North,0,0.0,0.0,55,0.00,,,0.00,VWS V14.01,2013-09-25 05:05:00,
2013-09-25 01:20:00,60.6,44.8,29.32,WNW,291,0.0,0.0,56,0.00,,,0.00,VWS V14.01,2013-09-25 05:20:00,
2013-09-25 01:35:00,60.4,44.7,29.32,NNW,334,0.0,0.0,56,0.00,,,0.00,VWS V14.01,2013-09-25 05:35:00,
2013-09-25 01:50:00,60.4,44.7,29.32,NNW,346,0.0,0.0,56,0.00,,,0.00,VWS V14.01,2013-09-25 05:50:00,
2013-09-25 02:05:00,60.4,45.2,29.32,NNW,345,0.0,0.0,57,0.00,,,0.00,VWS V14.01,2013-09-25 06:05:00,
2013-09-25 02:20:00,60.1,44.3,29.32,North,5,0.0,0.0,56,0.00,,,0.00,VWS V14.01,2013-09-25 06:20:00,
2013-09-25 02:35:00,60.1,44.3,29.32,North,5,0.0,0.0,56,0.00,,,0.00,VWS V14.01,2013-09-25 06:35:00,
2013-09-25 02:50:00,60.1,44.3,29.32,WNW,289,0.0,0.0,56,0.00,,,0.00,VWS V14.01,2013-09-25 06:50:00,
2013-09-25 03:05:00,59.9,44.7,29.29,WNW,289,0.0,0.0,57,0.00,,,0.00,VWS V14.01,2013-09-25 07:05:00,
2013-09-25 03:20:00,59.7,44.0,29.29,WNW,289,0.0,0.0,56,0.00,,,0.00,VWS V14.01,2013-09-25 07:20:00,
2013-09-25 03:35:00,59.5,43.8,29.29,WNW,289,0.0,0.0,56,0.00,,,0.00,VWS V14.01,2013-09-25 07:35:00,
2013-09-25 03:50:00,59.4,43.7,29.29,NW,324,0.0,0.0,56,0.00,,,0.00,VWS V14.01,2013-09-25 07:50:00,
2013-09-25 04:05:00,59.2,43.5,29.29,North,353,0.0,0.0,56,0.00,,,0.00,VWS V14.01,2013-09-25 08:05:00,
2013-09-25 04:20:00,59.2,43.5,29.29,North,353,0.0,0.0,56,0.00,,,0.00,VWS V14.01,2013-09-25 08:20:00,
2013-09-25 04:35:00,59.2,44.0,29.26,NNW,334,0.0,0.0,57,0.00,,,0.00,VWS V14.01,2013-09-25 08:35:00,
2013-09-25 04:50:00,59.2,43.5,29.26,North,349,0.0,0.0,56,0.00,,,0.00,VWS V14.01,2013-09-25 08:50:00,
2013-09-25 05:05:00,59.0,43.3,29.29,North,349,0.0,0.0,56,0.00,,,0.00,VWS V14.01,2013-09-25 09:05:00,
2013-09-25 05:20:00,59.0,43.3,29.26,North,349,0.0,0.0,56,0.00,,,0.00,VWS V14.01,2013-09-25 09:20:00,
2013-09-25 05:35:00,58.8,43.2,29.26,North,349,0.0,0.0,56,0.00,,,0.00,VWS V14.01,2013-09-25 09:35:00,
2013-09-25 05:50:00,58.8,43.2,29.29,North,349,0.0,0.0,56,0.00,,,0.00,VWS V14.01,2013-09-25 09:50:00,
2013-09-25 06:05:00,58.8,43.2,29.29,North,349,0.0,0.0,56,0.00,,,0.00,VWS V14.01,2013-09-25 10:05:00,
2013-09-25 06:20:00,58.6,43.0,29.29,North,357,0.0,0.0,56,0.00,,,0.00,VWS V14.01,2013-09-25 10:20:00,
2013-09-25 06:35:00,58.5,42.4,29.29,North,5,0.0,0.0,55,0.00,,,0.00,VWS V14.01,2013-09-25 10:35:00,
2013-09-25 06:50:00,58.3,42.2,29.29,North,2,0.0,0.0,55,0.00,,,0.00,VWS V14.01,2013-09-25 10:50:00,
2013-09-25 07:05:00,58.1,42.0,29.29,North,2,0.0,0.0,55,0.00,,,0.00,VWS V14.01,2013-09-25 11:05:00,
2013-09-25 07:20:00,57.7,41.7,29.29,North,2,0.0,0.0,55,0.00,,,0.00,VWS V14.01,2013-09-25 11:20:00,
2013-09-25 07:35:00,57.6,42.0,29.29,North,2,0.0,0.0,56,0.00,,,0.00,VWS V14.01,2013-09-25 11:35:00,
2013-09-25 07:50:00,57.7,42.6,29.29,North,2,0.0,0.0,57,0.00,,,0.00,VWS V14.01,2013-09-25 11:50:00,
2013-09-25 08:05:00,57.9,43.2,29.29,North,0,0.0,0.0,58,0.00,,,0.00,VWS V14.01,2013-09-25 12:05:00,
2013-09-25 08:20:00,58.1,43.9,29.29,North,1,0.0,0.0,59,0.00,,,0.00,VWS V14.01,2013-09-25 12:20:00,
2013-09-25 08:35:00,58.5,44.6,29.29,North,0,0.0,0.0,60,0.00,,,0.00,VWS V14.01,2013-09-25 12:35:00,
2013-09-25 08:50:00,59.0,45.2,29.29,North,0,0.0,0.0,60,0.00,,,0.00,VWS V14.01,2013-09-25 12:50:00,
2013-09-25 09:05:00,59.2,44.9,29.29,North,357,0.0,0.0,59,0.00,,,0.00,VWS V14.01,2013-09-25 13:05:00,
2013-09-25 09:20:00,59.4,44.6,29.29,North,357,0.0,0.0,58,0.00,,,0.00,VWS V14.01,2013-09-25 13:20:00,
2013-09-25 09:35:00,59.5,44.3,29.29,North,357,0.0,0.0,57,0.00,,,0.00,VWS V14.01,2013-09-25 13:35:00,
2013-09-25 09:50:00,59.7,43.5,29.29,North,357,0.0,0.0,55,0.00,,,0.00,VWS V14.01,2013-09-25 13:50:00,
2013-09-25 10:05:00,61.9,46.5,29.29,NE,52,0.0,0.0,57,0.00,,,0.00,VWS V14.01,2013-09-25 14:05:00,
2013-09-25 10:20:00,63.3,44.4,29.29,North,357,0.0,0.0,50,0.00,,,0.00,VWS V14.01,2013-09-25 14:20:00,
2013-09-25 10:35:00,65.1,40.9,29.29,North,357,0.0,0.0,41,0.00,,,0.00,VWS V14.01,2013-09-25 14:35:00,
2013-09-25 10:50:00,66.0,36.9,29.29,East,91,0.0,0.0,34,0.00,,,0.00,VWS V14.01,2013-09-25 14:50:00,
2013-09-25 11:05:00,66.0,36.1,29.29,North,1,0.0,0.0,33,0.00,,,0.00,VWS V14.01,2013-09-25 15:05:00,
2013-09-25 11:20:00,66.7,35.2,29.29,NW,319,0.0,0.0,31,0.00,,,0.00,VWS V14.01,2013-09-25 15:20:00,
2013-09-25 11:35:00,68.4,32.2,29.29,North,2,0.0,0.0,26,0.00,,,0.00,VWS V14.01,2013-09-25 15:35:00,
2013-09-25 11:50:00,70.5,33.0,29.29,SE,136,0.0,0.0,25,0.00,,,0.00,VWS V14.01,2013-09-25 15:50:00,
2013-09-25 12:05:00,71.6,30.8,29.29,NNE,19,0.0,0.0,22,0.00,,,0.00,VWS V14.01,2013-09-25 16:05:00,
2013-09-25 12:20:00,71.8,30.9,29.29,ENE,74,0.0,0.0,22,0.00,,,0.00,VWS V14.01,2013-09-25 16:20:00,
2013-09-25 12:35:00,72.3,31.4,29.29,ENE,59,0.0,0.0,22,0.00,,,0.00,VWS V14.01,2013-09-25 16:35:00,
2013-09-25 12:50:00,72.9,31.8,29.29,North,2,0.0,0.0,22,0.00,,,0.00,VWS V14.01,2013-09-25 16:50:00,
2013-09-25 13:05:00,74.1,31.7,29.26,NNE,27,0.0,0.0,21,0.00,,,0.00,VWS V14.01,2013-09-25 17:05:00,
2013-09-25 13:20:00,73.8,27.6,29.26,South,182,0.0,0.0,18,0.00,,,0.00,VWS V14.01,2013-09-25 17:20:00,
2013-09-25 13:35:00,73.0,30.8,29.26,South,189,0.0,0.0,21,0.00,,,0.00,VWS V14.01,2013-09-25 17:35:00,
2013-09-25 13:50:00,72.1,30.1,29.26,South,189,0.0,0.0,21,0.00,,,0.00,VWS V14.01,2013-09-25 17:50:00,
2013-09-25 14:05:00,71.6,30.8,29.26,South,189,0.0,0.0,22,0.00,,,0.00,VWS V14.01,2013-09-25 18:05:00,
2013-09-25 14:20:00,70.5,29.9,29.26,South,189,0.0,0.0,22,0.00,,,0.00,VWS V14.01,2013-09-25 18:20:00,
2013-09-25 14:35:00,70.5,31.0,29.26,South,189,0.0,0.0,23,0.00,,,0.00,VWS V14.01,2013-09-25 18:35:00,
2013-09-25 14:50:00,68.7,31.5,29.26,WNW,294,0.0,0.0,25,0.00,,,0.00,VWS V14.01,2013-09-25 18:50:00,
2013-09-25 15:05:00,68.0,34.6,29.23,WNW,294,0.0,0.0,29,0.00,,,0.00,VWS V14.01,2013-09-25 19:05:00,
2013-09-25 15:20:00,67.3,36.4,29.23,WNW,294,0.0,0.0,32,0.00,,,0.00,VWS V14.01,2013-09-25 19:20:00,
2013-09-25 15:35:00,66.9,36.9,29.23,WNW,294,0.0,0.0,33,0.00,,,0.00,VWS V14.01,2013-09-25 19:35:00,
2013-09-25 15:50:00,66.6,38.8,29.26,SSW,194,0.0,0.0,36,0.00,,,0.00,VWS V14.01,2013-09-25 19:50:00,
2013-09-25 16:05:00,66.2,39.9,29.26,SSW,194,0.0,0.0,38,0.00,,,0.00,VWS V14.01,2013-09-25 20:05:00,
2013-09-25 16:20:00,66.7,42.9,29.26,SSW,194,0.0,0.0,42,0.00,,,0.00,VWS V14.01,2013-09-25 20:20:00,
2013-09-25 16:35:00,67.1,44.5,29.26,SSW,194,0.0,0.0,44,0.00,,,0.00,VWS V14.01,2013-09-25 20:35:00,
2013-09-25 16:50:00,67.8,45.7,29.26,SSW,194,0.0,0.0,45,0.00,,,0.00,VWS V14.01,2013-09-25 20:50:00,
2013-09-25 17:05:00,67.6,45.6,29.26,SSW,194,0.0,0.0,45,0.00,,,0.00,VWS V14.01,2013-09-25 21:05:00,
2013-09-25 17:20:00,67.6,45.6,29.26,SSW,194,0.0,0.0,45,0.00,,,0.00,VWS V14.01,2013-09-25 21:20:00,
2013-09-25 17:35:00,67.5,45.4,29.26,SSW,194,0.0,0.0,45,0.00,,,0.00,VWS V14.01,2013-09-25 21:35:00,
2013-09-25 17:50:00,67.1,45.7,29.26,SSW,194,0.0,0.0,46,0.00,,,0.00,VWS V14.01,2013-09-25 21:50:00,
2013-09-25 18:05:00,67.1,46.2,29.26,SSW,194,0.0,0.0,47,0.00,,,0.00,VWS V14.01,2013-09-25 22:05:00,
2013-09-25 18:20:00,66.9,46.0,29.26,SSW,194,0.0,0.0,47,0.00,,,0.00,VWS V14.01,2013-09-25 22:20:00,
2013-09-25 18:35:00,66.7,46.5,29.26,SSW,194,0.0,0.0,48,0.00,,,0.00,VWS V14.01,2013-09-25 22:35:00,
2013-09-25 18:50:00,66.6,46.8,29.26,SSW,194,0.0,0.0,49,0.00,,,0.00,VWS V14.01,2013-09-25 22:50:00,
2013-09-25 19:05:00,66.4,47.2,29.26,SSW,194,0.0,0.0,50,0.00,,,0.00,VWS V14.01,2013-09-25 23:05:00,
2013-09-25 19:20:00,66.2,48.1,29.26,SSW,194,0.0,0.0,52,0.00,,,0.00,VWS V14.01,2013-09-25 23:20:00,
2013-09-25 19:35:00,66.0,47.9,29.26,SSW,194,0.0,0.0,52,0.00,,,0.00,VWS V14.01,2013-09-25 23:35:00,
2013-09-25 19:50:00,65.8,48.8,29.26,SSW,194,0.0,0.0,54,0.00,,,0.00,VWS V14.01,2013-09-25 23:50:00,
2013-09-25 20:05:00,66.0,49.9,29.26,SSW,195,0.0,0.0,56,0.00,,,0.00,VWS V14.01,2013-09-26 00:05:00,
2013-09-25 20:20:00,65.8,50.2,29.26,SSW,194,0.0,0.0,57,0.00,,,0.00,VWS V14.01,2013-09-26 00:20:00,
2013-09-25 20:35:00,65.7,50.5,29.26,WNW,285,0.0,0.0,58,0.00,,,0.00,VWS V14.01,2013-09-26 00:35:00,
2013-09-25 20:50:00,65.5,50.8,29.26,WNW,285,0.0,0.0,59,0.00,,,0.00,VWS V14.01,2013-09-26 00:50:00,
2013-09-25 21:05:00,65.3,50.6,29.26,WNW,285,0.0,0.0,59,0.00,,,0.00,VWS V14.01,2013-09-26 01:05:00,
2013-09-25 21:20:00,65.1,50.9,29.26,WNW,285,0.0,0.0,60,0.00,,,0.00,VWS V14.01,2013-09-26 01:20:00,
2013-09-25 21:35:00,64.9,50.7,29.29,WNW,285,0.0,0.0,60,0.00,,,0.00,VWS V14.01,2013-09-26 01:35:00,
2013-09-25 21:50:00,64.8,51.0,29.29,WNW,285,0.0,0.0,61,0.00,,,0.00,VWS V14.01,2013-09-26 01:50:00,
2013-09-25 22:05:00,64.6,51.3,29.29,WNW,285,0.0,0.0,62,0.00,,,0.00,VWS V14.01,2013-09-26 02:05:00,
2013-09-25 22:20:00,64.4,51.5,29.29,WNW,285,0.0,0.0,63,0.00,,,0.00,VWS V14.01,2013-09-26 02:20:00,
2013-09-25 22:35:00,64.6,52.1,29.29,WNW,285,0.0,0.0,64,0.00,,,0.00,VWS V14.01,2013-09-26 02:35:00,
2013-09-25 22:50:00,64.4,52.0,29.29,WNW,285,0.0,0.0,64,0.00,,,0.00,VWS V14.01,2013-09-26 02:50:00,
2013-09-25 23:05:00,64.4,52.4,29.29,WNW,285,0.0,0.0,65,0.00,,,0.00,VWS V14.01,2013-09-26 03:05:00,
2013-09-25 23:20:00,64.4,52.4,29.29,WNW,285,0.0,0.0,65,0.00,,,0.00,VWS V14.01,2013-09-26 03:20:00,
2013-09-25 23:35:00,64.4,52.8,29.29,WNW,285,0.0,0.0,66,0.00,,,0.00,VWS V14.01,2013-09-26 03:35:00,
2013-09-25 23:50:00,64.2,52.6,29.29,WNW,285,0.0,0.0,66,0.00,,,0.00,VWS V14.01,2013-09-26 03:50:00,